User: anonymous   Login
Location: Unspecified
(0.0000°N, 0.0000°E)
Time: 07:52:13
(UTC+00:00)
Language:

Gonets-D1 - Orbit

View from above orbital plane
View from above orbital plane
View from above satellite
View from above satellite

Ground track
Ground track

The orbit data is extracted from the following two-line orbital elements,

1 23787U 96009A   17328.46586583  .00000033  00000-0  12176-3 0  9993
2 23787  82.5734 140.8984 0010236 313.9394  46.0852 12.64032828  4269
Epoch (UTC): 24 November 2017 11:10:50
Eccentricity: 0.0010236
inclination: 82.5734°
perigee height: 1398 km
apogee height: 1414 km
right ascension of ascending node: 140.8984°
argument of perigee: 313.9394°
revolutions per day: 12.64032828
mean anomaly at epoch: 46.0852°
orbit number at epoch: 426

The dashed part of the orbit path shows where the satellite is in the earth's shadow,  

DLR